AA9VI-10 Weather Reports


Display with metric or nautical units.
time (UTC)temp
F
wind
direction
speed
MPH
gust
MPH
rain 1hr
in
rain 24hr
in
rain mn
in
humidity
%
barometer
mb
20260504024017 61 0 2.0 5.0 0.00 0.00 0.00 56 1005.9
20260504023017 61 0 1.0 4.0 0.00 0.00 0.00 55 1006.0
20260504022017 61 0 1.0 3.0 0.00 0.00 0.00 54 1005.9
20260504021017 62 0 2.0 3.0 0.00 0.00 0.00 53 1005.9
20260504020017 62 0 1.0 3.0 0.00 0.00 0.00 52 1005.8
20260504015017 63 0 1.0 3.0 0.00 0.00 0.00 51 1005.7
20260504014017 63 0 1.0 3.0 0.00 0.00 0.00 50 1005.6
20260504013017 63 0 2.0 4.0 0.00 0.00 0.00 50 1005.5
20260504012017 64 0 1.0 3.0 0.00 0.00 0.00 49 1005.3
20260504011017 64 0 1.0 3.0 0.00 0.00 0.00 48 1005.2
20260504010017 65 0 1.0 3.0 0.00 0.00 0.00 46 1005.1
20260504005017 66 0 2.0 4.0 0.00 0.00 0.00 46 1005.2
20260504004017 66 0 2.0 6.0 0.00 0.00 0.00 45 1005.4
20260504003017 67 225 1.0 4.0 0.00 0.00 0.00 44 1005.4
20260504002017 67 225 1.0 4.0 0.00 0.00 0.00 43 1005.4
20260504001017 67 0 3.0 5.0 0.00 0.00 0.00 42 1005.3
20260504000017 68 248 2.0 8.0 0.00 0.00 0.00 42 1005.4
20260503235017 68 225 4.0 11.0 0.00 0.00 0.00 41 1005.4
20260503234017 68 225 2.0 6.0 0.00 0.00 0.00 42 1005.4
20260503233017 68 270 2.0 8.0 0.00 0.00 0.00 41 1005.4
20260503232017 68 225 3.0 7.0 0.00 0.00 0.00 40 1005.5
20260503231017 69 225 3.0 11.0 0.00 0.00 0.00 40 1005.6
20260503230017 69 203 2.0 6.0 0.00 0.00 0.00 40 1005.6
20260503225022 69 180 2.0 8.0 0.00 0.00 0.00 42 1005.7
20260503224017 68 225 5.0 11.0 0.00 0.00 0.00 40 1005.7
20260503223017 68 158 6.0 16.0 0.00 0.00 0.00 40 1005.7
20260503222017 68 180 5.0 13.0 0.00 0.00 0.00 40 1005.8
20260503221017 68 180 5.0 15.0 0.00 0.00 0.00 40 1005.9
20260503220017 67 180 7.0 17.0 0.00 0.00 0.00 39 1006.1
20260503215017 67 180 5.0 12.0 0.00 0.00 0.00 40 1006.0
20260503214017 67 180 6.0 13.0 0.00 0.00 0.00 40 1006.2
20260503213016 67 180 7.0 18.0 0.00 0.00 0.00 40 1006.4
20260503212017 66 180 5.0 18.0 0.00 0.00 0.00 40 1006.5
20260503211017 65 225 6.0 14.0 0.00 0.00 0.00 41 1006.6
20260503210017 66 180 7.0 16.0 0.00 0.00 0.00 39 1006.7
20260503205017 66 180 7.0 16.0 0.00 0.00 0.00 38 1006.9
20260503204017 66 248 7.0 16.0 0.00 0.00 0.00 39 1007.0
20260503203017 66 158 7.0 22.0 0.00 0.00 0.00 38 1007.3
20260503202017 65 203 9.0 24.0 0.00 0.00 0.00 40 1007.7
20260503201017 64 180 6.0 11.0 0.00 0.00 0.00 45 1007.8
20260503200016 63 0 6.0 16.0 0.00 0.00 0.00 47 1007.9
20260503195017 63 0 7.0 13.0 0.00 0.00 0.00 47 1008.3
20260503194017 62 0 6.0 19.0 0.00 0.00 0.00 49 1008.4
20260503193017 62 180 7.0 15.0 0.00 0.00 0.00 49 1008.5
20260503192017 61 180 7.0 18.0 0.00 0.00 0.00 50 1008.5
20260503191017 61 0 6.0 18.0 0.00 0.00 0.00 49 1008.5
20260503190017 60 0 6.0 15.0 0.00 0.00 0.00 51 1008.6
20260503185017 59 0 8.0 18.0 0.00 0.00 0.00 50 1008.7
20260503184016 59 0 7.0 15.0 0.00 0.00 0.00 50 1009.0
20260503183017 59 0 4.0 14.0 0.00 0.00 0.00 52 1009.2
20260503182017 57 0 7.0 15.0 0.00 0.00 0.00 53 1009.4
20260503181017 58 0 4.0 12.0 0.00 0.00 0.00 54 1009.5
20260503180017 57 0 5.0 12.0 0.00 0.00 0.00 57 1009.8
20260503175017 56 0 6.0 13.0 0.00 0.00 0.00 58 1010.1
20260503174016 56 0 6.0 14.0 0.00 0.00 0.00 58 1010.6
20260503173017 56 0 6.0 15.0 0.00 0.00 0.00 58 1010.8
20260503172017 56 0 8.0 21.0 0.00 0.00 0.00 58 1011.2
20260503171017 55 180 7.0 14.0 0.00 0.00 0.00 60 1011.3
20260503131017 49 203 4.0 8.0 0.00 0.00 0.00 58 1013.8
20260503081016 45 225 2.0 4.0 0.00 0.00 0.00 55 1014.3
20260503072017 45 225 2.0 7.0 0.00 0.00 0.00 54 1014.5
20260503071016 45 225 1.0 4.0 0.00 0.00 0.00 54 1014.5
20260503055017 46 225 1.0 4.0 0.00 0.00 0.00 53 1015.2
20260503054016 46 225 2.0 4.0 0.00 0.00 0.00 53 1015.2
20260503053016 46 225 2.0 4.0 0.00 0.00 0.00 53 1015.4
20260503052016 46 225 2.0 4.0 0.00 0.00 0.00 53 1015.5
20260503051016 46 225 1.0 3.0 0.00 0.00 0.00 54 1015.4
20260503050016 46 180 2.0 4.0 0.00 0.00 0.00 54 1015.6
20260503045017 46 225 1.0 3.0 0.00 0.00 0.00 54 1015.6
20260503044017 46 225 2.0 4.0 0.00 0.00 0.00 54 1015.5
20260503043017 46 203 1.0 4.0 0.00 0.00 0.00 54 1015.5
20260503042017 46 225 2.0 5.0 0.00 0.00 0.00 54 1015.6
20260503041017 46 225 1.0 3.0 0.00 0.00 0.00 54 1015.7
20260503040017 47 225 1.0 4.0 0.00 0.00 0.00 54 1015.8
20260503035017 47 225 1.0 3.0 0.00 0.00 0.00 54 1015.7
20260503034019 47 225 1.0 3.0 0.00 0.00 0.00 53 1015.8
20260503033018 47 225 1.0 2.0 0.00 0.00 0.00 53 1015.8
20260503032018 47 0.0 2.0 0.00 0.00 0.00 52 1015.9
20260503031017 47 0.0 2.0 0.00 0.00 0.00 52 1015.9
20260503030017 48 0.0 2.0 0.00 0.00 0.00 51 1016.0
20260503025017 48 203 1.0 3.0 0.00 0.00 0.00 50 1016.0